Flag for Canada Weather past 2 weeks in Kelowna, British Columbia, Canada

Now
72 °F

Partly sunny.


Feels Like: 77 °F
Forecast: 50 / 74 °F
Wind: 2 mph from North

Location: Kelowna Airport

Current Time: Jul 25, 2014 at 4:12:49 PM

Latest Report: Jul 25, 2014 at 3:00 PM


Visibility: 9 mi

Pressure: 30.05 "Hg

Humidity: 38%

Dew point: 45 °F

Location of KelownaLocation

Historic Weather in Kelowna — Graph

°F

Kelowna temperature yesterday

Maximum temperature yesterday: 64 °F (at 7:00 PM)
Minimum temperature yesterday: 50 °F (at 5:00 AM)
Average temperature yesterday: 57 °F

Past Weeks' High & Low Weather Summary

 TemperatureHumidityPressure
High100 °F (Jul 13, 5:00 PM)94% (Jul 23, 6:00 PM)30.14 "Hg (Jul 23, 6:00 PM)
Low50 °F (Jul 11, 5:00 AM)12% (Jul 12, 4:00 PM)29.68 "Hg (Jul 17, 4:00 PM)
Average72 °F49%29.92 "Hg
* Reported Jul 10 3:00 PM — Jul 25 3:00 PM, Kelowna, Weather by CustomWeather, © 2014

Note: Actual official high and low records may vary slightly from our data, if they occured in-between our weather recording intervals... More about our weather records

Advertising

Kelowna weather history for previous 24 hours

 ConditionsComfort  
Time TempWeatherWind HumidityBarometerVisibility
3:00 PM
Jul 25
72 °FPartly sunny.2 mph38%30.05 "Hg9 mi
2:00 PM75 °FOvercast.7 mph36%30.06 "Hg9 mi
1:00 PM72 °FOvercast.3 mph38%30.07 "Hg9 mi
12:00 PM70 °FPartly sunny.5 mph40%30.08 "Hg9 mi
11:00 AM68 °FScattered clouds.6 mph43%30.08 "Hg9 mi
10:00 AM64 °FOvercast.5 mph52%30.09 "Hg9 mi
9:00 AM63 °FOvercast.8 mph59%30.10 "Hg9 mi
8:00 AM59 °FMostly cloudy.5 mph68%30.10 "Hg9 mi
7:00 AM55 °FPassing clouds.2 mph72%30.10 "Hg9 mi
6:00 AM52 °FPassing clouds.2 mph82%30.10 "Hg9 mi
5:00 AM55 °FMostly cloudy.5 mph72%30.09 "Hg9 mi
4:00 AM55 °FOvercast.3 mph72%30.08 "Hg9 mi
3:00 AM55 °FOvercast.3 mph77%30.07 "Hg9 mi
2:00 AM55 °FOvercast.2 mph77%30.07 "Hg9 mi
1:00 AM57 °FOvercast.5 mph67%30.07 "Hg9 mi
12:00 AM57 °FOvercast.5 mph72%30.07 "Hg9 mi
11:00 PM
Jul 24
57 °FClear.9 mph63%30.06 "Hg9 mi
10:00 PM63 °FClear.10 mph49%30.04 "Hg9 mi
9:00 PM63 °FPartly sunny.8 mph52%30.04 "Hg9 mi
8:00 PM64 °FOvercast.9 mph49%30.03 "Hg9 mi
7:00 PM64 °FOvercast.6 mph60%30.02 "Hg9 mi
6:00 PM61 °FOvercast.10 mph68%30.03 "Hg9 mi
5:00 PM61 °FOvercast.7 mph68%30.04 "Hg9 mi
4:00 PM61 °FBroken clouds.9 mph68%30.05 "Hg9 mi
Weather by CustomWeather, © 2014

See weather overviewHow to use our weather pages